Aeroporto :
LOGIN :

Iscrizione | Disclaimer

   EN    FR    IT 

 










Sommario :    VFR   VFR Marginale   IFR   IFR Intensivo   IFR Molto Intensivo
Visibilità : 
Base nubi : 
>= 8 km
>= 3000ft
5 / 8 km
1000 / 3000 ft
1500m / 5 km
500 / 1000 ft
800 / 1500m
200 / 500 ft
< 800m
< 200 ft
Simboli :   Temporali  Nebbia  Neve Forte  Precipitazioni Forti  Vento > 20 kt
SIGMETs :   Varie  Temporali  Ghiacco  Turbolenza  Onda orograficha  Ceneri Vulcaniche







- Altitudine del aeroporto : 353 ft
- Codice IATA : ZAG


LDZA - Zagreb Pleso

ULTIMO METAR :
  • 250700Z VRB02KT 9999 FEW030 25/20 Q1023 NOSIG

METARs OBSOLETI :
  • 250630Z 08004KT 010V150 9999 FEW030 25/19 Q1023 NOSIG
  • 250600Z 00000KT 9999 FEW030 24/19 Q1022 NOSIG
  • 250530Z 00000KT 9999 FEW035 22/19 Q1022 NOSIG
  • 250500Z 00000KT 9999 FEW035 21/19 Q1022 NOSIG
  • 250430Z 00000KT CAVOK 19/18 Q1022 NOSIG

TAF TAF LDZA
Valido dal 25 a 06 ore il 26 a 06 ore UTC


250525Z 2506/2606 VRB02KT CAVOK TX32/2513Z TN19/2603Z
TEMPO 2511/2518 06008KT
ATIS : +385 1 6-259-214
Nessun NOTAM noto per questo aeroporto.



MetMap, La meteo Aeronautica in un colpo d'occhio ! - Copyright ORBIFLY Dicembre 2007 - Disclaimer

ORBIFLY MET'MAP TEAM :

Programmazione e sviluppo : Alexandra Zaïnal
Concezione e sviluppo : Baudouin d'Aumeries
Co-Programmazione e sviluppo : Marc-Olivier Méhu
Supporto tecnico e logistico : Manuel Goepfert
Aiuto per la traduzione : Arnaldo La Scala

Contatto : metmap@orbifly.com




FONTI E CREDITI :

   NOAA